Location: Obersdorf
(47.4079°N, 10.2781°E)
Time: 10:42:49
(UTC+01:00)

XW-2C - Pass Details

Date: 08 December 2021
Orbit: 503 x 523 km, 97.5° (Epoch: 15 January)

Event Time Altitude Azimuth Distance (km) Brightness Sun altitude
Rises 06:51:34 0° 7° (N) 2,670 ? -10.0°
Reaches altitude 10° 06:53:44 10° 2° (N) 1,776 ? -9.7°
Maximum altitude 06:57:25 46° 288° (WNW) 710 ? -9.1°
Drops below altitude 10° 07:01:03 10° 215° (SW) 1,759 ? -8.6°
Sets 07:03:12 0° 209° (SSW) 2,641 ? -8.2°
